User: anonymous   Login
Location: Grandview
(34.8900°N, 117.1058°W)
Time: 04:11:34
(UTC-07:00)
Language:

Tiangong 1 - Orbit

View from above orbital plane
View from above orbital plane
View from above satellite
View from above satellite

Ground track
Ground track

The orbit data is extracted from the following two-line orbital elements,

1 37820U 11053A   17297.22396991  .00042185  87885-5  14996-3 0  9990
2 37820  42.7555 125.1298 0020537 281.9807  50.6729 15.88815990348413
Epoch (UTC): 24 October 2017 05:22:31
Eccentricity: 0.0020537
inclination: 42.7555°
perigee height: 292 km
apogee height: 319 km
right ascension of ascending node: 125.1298°
argument of perigee: 281.9807°
revolutions per day: 15.88815990
mean anomaly at epoch: 50.6729°
orbit number at epoch: 34841

The dashed part of the orbit path shows where the satellite is in the earth's shadow,  

DLR